Location: Bothwell
(42.3833°S, 147.0000°E)
Time: 00:13:30
(UTC+11:00)

First-Move - Visible Passes

Search period start: 05 December 2023 00:00
Search period end: 15 December 2023 00:00
Orbit: 549 x 625 km, 97.7° (Epoch: 03 December)

Date Brightness Start Highest point End Pass type
(mag) Time Alt. Az. Time Alt. Az. Time Alt. Az.
05 Dec ? 03:17:51 10° NE 03:21:58 44° ESE 03:26:11 10° S visible
05 Dec ? 04:54:42 10° NW 04:57:38 18° W 05:00:37 10° SW visible
06 Dec ? 03:24:44 10° NNE 03:28:57 52° ESE 03:33:17 10° S visible
07 Dec ? 03:31:37 10° NNE 03:35:55 62° ESE 03:40:19 10° S visible
08 Dec ? 03:38:31 10° NNE 03:42:52 75° ESE 03:47:19 10° S visible
09 Dec ? 03:45:27 10° NNE 03:49:48 88° ESE 03:54:16 10° SSW visible
10 Dec ? 02:20:27 10° E 02:21:56 12° ESE 02:23:26 10° SE visible
10 Dec ? 03:52:26 11° N 03:56:43 78° WNW 04:01:10 10° SSW visible
11 Dec ? 02:26:35 10° E 02:28:44 14° ESE 02:30:53 10° SSE visible
11 Dec ? 03:59:24 11° N 04:03:36 65° W 04:08:02 10° SSW visible
12 Dec ? 02:32:52 10° E 02:35:30 16° ESE 02:38:09 10° SSE visible
12 Dec ? 04:06:20 11° N 04:10:28 55° W 04:14:51 10° SSW visible
13 Dec ? 02:39:16 10° ENE 02:42:16 18° ESE 02:45:16 10° SSE visible
13 Dec ? 04:13:15 11° N 04:17:19 46° W 04:21:36 10° SSW visible
14 Dec ? 02:45:42 10° ENE 02:48:59 21° ESE 02:52:19 10° SSE visible
14 Dec ? 04:20:08 10° NNW 04:24:10 39° W 04:28:19 10° SSW visible
